Time,TemperatureF,DewpointF,PressureIn,WindDirection,WindDirectionDegrees,WindSpeedMPH,WindSpeedGustMPH,Humidity,HourlyPrecipIn,Conditions,Clouds,dailyrainin,SoftwareType,DateUTC
2013-09-19 00:00:00,62.3,58.1,29.97,WNW,296,3.0,4.0,86,0.00,,SKC,0.00,VWS V14.01,2013-09-19 04:00:00,
2013-09-19 00:01:00,62.3,58.1,29.97,WNW,296,4.0,4.0,86,0.00,,SKC,0.00,VWS V14.01,2013-09-19 04:01:00,
2013-09-19 00:02:00,62.3,58.1,29.97,WNW,296,1.0,3.0,86,0.00,,SKC,0.00,VWS V14.01,2013-09-19 04:02:00,
2013-09-19 00:07:00,62.1,58.2,29.97,WNW,297,1.0,6.0,87,0.00,,SKC,0.00,VWS V14.01,2013-09-19 04:07:00,
2013-09-19 00:08:00,62.1,58.2,29.97,WNW,297,1.0,6.0,87,0.00,,SKC,0.00,VWS V14.01,2013-09-19 04:08:00,
2013-09-19 00:13:00,62.1,58.2,29.97,WNW,299,1.0,6.0,87,0.00,,SKC,0.00,VWS V14.01,2013-09-19 04:13:00,
2013-09-19 00:18:00,62.1,58.2,29.97,WNW,299,0.0,6.0,87,0.00,,SKC,0.00,VWS V14.01,2013-09-19 04:18:00,
2013-09-19 00:24:00,62.0,58.1,29.97,WNW,299,0.0,6.0,87,0.00,,SKC,0.00,VWS V14.01,2013-09-19 04:24:00,
2013-09-19 00:29:00,62.0,58.4,29.97,WNW,299,2.0,6.0,88,0.00,,SKC,0.00,VWS V14.01,2013-09-19 04:29:00,
2013-09-19 00:34:00,62.0,58.4,29.97,WNW,299,0.0,6.0,88,0.00,,SKC,0.00,VWS V14.01,2013-09-19 04:34:00,
2013-09-19 00:39:00,62.0,58.4,29.97,WNW,299,0.0,6.0,88,0.00,,SKC,0.00,VWS V14.01,2013-09-19 04:39:00,
2013-09-19 00:44:00,62.0,58.4,29.97,WNW,299,0.0,6.0,88,0.00,,SKC,0.00,VWS V14.01,2013-09-19 04:44:00,
2013-09-19 00:49:00,62.0,58.4,29.97,WNW,299,0.0,6.0,88,0.00,,SKC,0.00,VWS V14.01,2013-09-19 04:49:00,
2013-09-19 00:54:00,62.0,58.4,29.97,WNW,299,0.0,6.0,88,0.00,,SKC,0.00,VWS V14.01,2013-09-19 04:54:00,
2013-09-19 01:00:00,62.1,58.5,29.97,WNW,299,0.0,6.0,88,0.00,,SKC,0.00,VWS V14.01,2013-09-19 05:00:00,
2013-09-19 01:05:00,62.1,58.5,29.97,WNW,299,0.0,0.0,88,0.00,,SKC,0.00,VWS V14.01,2013-09-19 05:05:00,
2013-09-19 01:10:00,62.1,58.5,29.97,WNW,299,0.0,0.0,88,0.00,,SKC,0.00,VWS V14.01,2013-09-19 05:10:00,
2013-09-19 01:15:00,62.1,58.5,29.97,WNW,299,0.0,0.0,88,0.00,,SKC,0.00,VWS V14.01,2013-09-19 05:15:00,
2013-09-19 01:20:00,62.1,58.8,29.97,WNW,299,0.0,0.0,89,0.00,,SKC,0.00,VWS V14.01,2013-09-19 05:20:00,
2013-09-19 01:25:00,62.1,58.8,29.97,WNW,299,0.0,0.0,89,0.00,,SKC,0.00,VWS V14.01,2013-09-19 05:25:00,
2013-09-19 01:30:00,62.1,58.8,29.97,WNW,299,0.0,0.0,89,0.00,,SKC,0.00,VWS V14.01,2013-09-19 05:30:00,
2013-09-19 01:35:00,62.1,58.8,29.97,WNW,299,0.0,0.0,89,0.00,,SKC,0.00,VWS V14.01,2013-09-19 05:35:00,
2013-09-19 01:41:00,62.1,58.8,29.97,WNW,299,0.0,0.0,89,0.00,,SKC,0.00,VWS V14.01,2013-09-19 05:41:00,
2013-09-19 01:46:00,62.1,58.8,29.97,WNW,299,0.0,1.0,89,0.00,,SKC,0.00,VWS V14.01,2013-09-19 05:46:00,
2013-09-19 01:51:00,62.1,58.8,29.97,WNW,299,0.0,1.0,89,0.00,,SKC,0.00,VWS V14.01,2013-09-19 05:51:00,
2013-09-19 01:56:00,62.1,58.8,29.97,WNW,299,0.0,1.0,89,0.00,,SKC,0.00,VWS V14.01,2013-09-19 05:56:00,
2013-09-19 02:00:00,62.1,58.8,29.97,WNW,299,0.0,1.0,89,0.00,,SKC,0.00,VWS V14.01,2013-09-19 06:00:00,
2013-09-19 02:01:00,62.1,58.8,29.97,WNW,299,0.0,0.0,89,0.00,,SKC,0.00,VWS V14.01,2013-09-19 06:01:00,
2013-09-19 02:06:00,62.1,58.8,29.97,WNW,299,0.0,0.0,89,0.00,,SKC,0.00,VWS V14.01,2013-09-19 06:06:00,
2013-09-19 02:11:00,62.1,58.8,29.97,WNW,299,0.0,0.0,89,0.00,,SKC,0.00,VWS V14.01,2013-09-19 06:11:00,
2013-09-19 02:17:00,62.1,58.8,29.97,WNW,299,0.0,0.0,89,0.00,,SKC,0.00,VWS V14.01,2013-09-19 06:17:00,
2013-09-19 02:22:00,62.0,58.7,29.97,WNW,299,0.0,0.0,89,0.00,,SKC,0.00,VWS V14.01,2013-09-19 06:22:00,
2013-09-19 02:27:00,62.0,58.7,29.97,WNW,299,0.0,0.0,89,0.00,,SKC,0.00,VWS V14.01,2013-09-19 06:27:00,
2013-09-19 02:32:00,62.0,58.7,29.97,WNW,299,0.0,0.0,89,0.00,,SKC,0.00,VWS V14.01,2013-09-19 06:32:00,
2013-09-19 02:37:00,62.0,58.7,29.97,WNW,299,0.0,0.0,89,0.00,,SKC,0.00,VWS V14.01,2013-09-19 06:37:00,
2013-09-19 02:42:00,62.0,58.7,29.97,WNW,299,0.0,0.0,89,0.00,,SKC,0.00,VWS V14.01,2013-09-19 06:42:00,
2013-09-19 02:47:00,62.0,58.7,29.97,WNW,299,0.0,0.0,89,0.00,,SKC,0.00,VWS V14.01,2013-09-19 06:47:00,
2013-09-19 02:52:00,62.0,59.0,29.97,WNW,299,0.0,0.0,90,0.00,,SKC,0.00,VWS V14.01,2013-09-19 06:52:00,
2013-09-19 02:58:00,62.0,59.0,29.97,WNW,299,0.0,0.0,90,0.00,,SKC,0.00,VWS V14.01,2013-09-19 06:58:00,
2013-09-19 03:00:00,62.0,59.0,29.95,WNW,299,0.0,0.0,90,0.00,,SKC,0.00,VWS V14.01,2013-09-19 07:00:00,
2013-09-19 03:03:00,62.0,59.0,29.95,WNW,299,0.0,0.0,90,0.00,,SKC,0.00,VWS V14.01,2013-09-19 07:03:00,
2013-09-19 03:08:00,62.0,59.0,29.95,WNW,299,0.0,0.0,90,0.00,,SKC,0.00,VWS V14.01,2013-09-19 07:08:00,
2013-09-19 03:13:00,62.0,59.0,29.95,WNW,299,0.0,0.0,90,0.00,,SKC,0.00,VWS V14.01,2013-09-19 07:13:00,
2013-09-19 03:18:00,62.0,59.0,29.95,WNW,299,0.0,0.0,90,0.00,,SKC,0.00,VWS V14.01,2013-09-19 07:18:00,
2013-09-19 03:23:00,62.0,59.0,29.95,WNW,299,0.0,0.0,90,0.00,,SKC,0.00,VWS V14.01,2013-09-19 07:23:00,
2013-09-19 03:28:00,62.0,59.0,29.95,WNW,299,0.0,0.0,90,0.00,,SKC,0.00,VWS V14.01,2013-09-19 07:28:00,
2013-09-19 03:34:00,62.0,59.0,29.95,WNW,299,0.0,0.0,90,0.00,,SKC,0.00,VWS V14.01,2013-09-19 07:34:00,
2013-09-19 03:39:00,62.0,59.0,29.95,WNW,299,0.0,0.0,90,0.00,,SKC,0.00,VWS V14.01,2013-09-19 07:39:00,
2013-09-19 03:44:00,62.0,59.0,29.95,WNW,299,0.0,0.0,90,0.00,,SKC,0.00,VWS V14.01,2013-09-19 07:44:00,
2013-09-19 03:49:00,62.0,59.0,29.95,WNW,299,0.0,0.0,90,0.00,,SKC,0.00,VWS V14.01,2013-09-19 07:49:00,
2013-09-19 03:54:00,62.0,59.0,29.95,WNW,299,0.0,0.0,90,0.00,,SKC,0.00,VWS V14.01,2013-09-19 07:54:00,
2013-09-19 03:59:00,62.0,59.0,29.95,WNW,300,0.0,5.0,90,0.00,,SKC,0.00,VWS V14.01,2013-09-19 07:59:00,
2013-09-19 04:00:00,62.0,59.0,29.95,WNW,300,0.0,5.0,90,0.00,,SKC,0.00,VWS V14.01,2013-09-19 08:00:00,
2013-09-19 04:04:00,62.0,59.0,29.95,WNW,300,0.0,2.0,90,0.00,,SKC,0.00,VWS V14.01,2013-09-19 08:04:00,
2013-09-19 04:09:00,62.0,59.3,29.95,WNW,300,0.0,2.0,91,0.00,,SKC,0.00,VWS V14.01,2013-09-19 08:09:00,
2013-09-19 04:14:00,62.0,59.3,29.95,WNW,301,0.0,4.0,91,0.00,,SKC,0.00,VWS V14.01,2013-09-19 08:14:00,
2013-09-19 04:19:00,62.0,59.3,29.95,NW,304,2.0,5.0,91,0.00,,SKC,0.00,VWS V14.01,2013-09-19 08:19:00,
2013-09-19 04:25:00,62.0,59.3,29.95,NW,314,1.0,5.0,91,0.00,,SKC,0.00,VWS V14.01,2013-09-19 08:25:00,
2013-09-19 04:30:00,62.0,59.3,29.95,NW,314,0.0,5.0,91,0.00,,SKC,0.00,VWS V14.01,2013-09-19 08:30:00,
2013-09-19 04:35:00,62.0,59.3,29.95,NW,314,2.0,5.0,91,0.00,,SKC,0.00,VWS V14.01,2013-09-19 08:35:00,
2013-09-19 04:40:00,62.0,59.3,29.95,NW,314,0.0,5.0,91,0.00,,SKC,0.00,VWS V14.01,2013-09-19 08:40:00,
2013-09-19 04:45:00,62.0,59.3,29.95,NW,314,0.0,5.0,91,0.00,,SKC,0.00,VWS V14.01,2013-09-19 08:45:00,
2013-09-19 04:50:00,62.0,59.3,29.95,NW,314,1.0,5.0,91,0.00,,SKC,0.00,VWS V14.01,2013-09-19 08:50:00,
2013-09-19 04:55:00,62.0,59.3,29.95,NW,314,0.0,5.0,91,0.00,,SKC,0.00,VWS V14.01,2013-09-19 08:55:00,
2013-09-19 05:00:00,62.0,59.3,29.95,NW,314,0.0,5.0,91,0.00,,SKC,0.00,VWS V14.01,2013-09-19 09:00:00,
2013-09-19 05:05:00,62.0,59.3,29.95,NW,314,0.0,1.0,91,0.00,,SKC,0.00,VWS V14.01,2013-09-19 09:05:00,
2013-09-19 05:10:00,62.0,59.3,29.95,NW,321,0.0,4.0,91,0.00,,SKC,0.00,VWS V14.01,2013-09-19 09:10:00,
2013-09-19 05:16:00,62.0,59.3,29.95,NW,321,0.0,4.0,91,0.00,,SKC,0.00,VWS V14.01,2013-09-19 09:16:00,
2013-09-19 05:21:00,61.8,59.5,29.95,NW,321,0.0,4.0,92,0.00,,SKC,0.00,VWS V14.01,2013-09-19 09:21:00,
2013-09-19 05:26:00,61.8,59.5,29.95,NW,321,0.0,4.0,92,0.00,,SKC,0.00,VWS V14.01,2013-09-19 09:26:00,
2013-09-19 05:31:00,61.8,59.5,29.95,NW,321,0.0,4.0,92,0.00,,SKC,0.00,VWS V14.01,2013-09-19 09:31:00,
2013-09-19 05:36:00,61.8,59.5,29.95,NW,321,0.0,4.0,92,0.00,,SKC,0.00,VWS V14.01,2013-09-19 09:36:00,
2013-09-19 05:41:00,61.8,59.5,29.95,NW,321,0.0,4.0,92,0.00,,SKC,0.00,VWS V14.01,2013-09-19 09:41:00,
2013-09-19 05:46:00,61.8,59.5,29.95,NW,321,0.0,4.0,92,0.00,,SKC,0.00,VWS V14.01,2013-09-19 09:46:00,
2013-09-19 05:51:00,61.8,59.5,29.95,NW,321,0.0,4.0,92,0.00,,SKC,0.00,VWS V14.01,2013-09-19 09:51:00,
2013-09-19 05:56:00,61.8,59.5,29.95,NW,321,0.0,4.0,92,0.00,,SKC,0.00,VWS V14.01,2013-09-19 09:56:00,
2013-09-19 06:00:00,61.8,59.5,29.95,NW,321,0.0,4.0,92,0.00,,SKC,0.00,VWS V14.01,2013-09-19 10:00:00,
2013-09-19 06:01:00,61.8,59.5,29.95,NW,321,0.0,0.0,92,0.00,,SKC,0.00,VWS V14.01,2013-09-19 10:01:00,
2013-09-19 06:07:00,61.8,59.5,29.95,NW,321,0.0,0.0,92,0.00,,SKC,0.00,VWS V14.01,2013-09-19 10:07:00,
2013-09-19 06:12:00,61.8,59.5,29.95,NW,321,0.0,0.0,92,0.00,,SKC,0.00,VWS V14.01,2013-09-19 10:12:00,
2013-09-19 06:17:00,61.8,59.5,29.95,NW,321,0.0,0.0,92,0.00,,SKC,0.00,VWS V14.01,2013-09-19 10:17:00,
2013-09-19 06:22:00,61.8,59.5,29.95,NW,321,0.0,0.0,92,0.00,,SKC,0.00,VWS V14.01,2013-09-19 10:22:00,
2013-09-19 06:27:00,61.8,59.5,29.95,NW,321,0.0,1.0,92,0.00,,SKC,0.00,VWS V14.01,2013-09-19 10:27:00,
2013-09-19 06:32:00,61.8,59.5,29.95,NW,321,1.0,1.0,92,0.00,,SKC,0.00,VWS V14.01,2013-09-19 10:32:00,
2013-09-19 06:37:00,61.8,59.5,29.95,NW,321,0.0,1.0,92,0.00,,SKC,0.00,VWS V14.01,2013-09-19 10:37:00,
2013-09-19 06:42:00,61.8,59.5,29.95,NW,321,0.0,1.0,92,0.00,,SKC,0.00,VWS V14.01,2013-09-19 10:42:00,
2013-09-19 06:48:00,61.6,59.3,29.95,NW,321,2.0,2.0,92,0.00,,SKC,0.00,VWS V14.01,2013-09-19 10:48:00,
2013-09-19 06:53:00,61.6,59.3,29.95,NW,321,0.0,2.0,92,0.00,,SKC,0.00,VWS V14.01,2013-09-19 10:53:00,
2013-09-19 06:58:00,61.6,59.6,29.95,NW,321,0.0,2.0,93,0.00,,SKC,0.00,VWS V14.01,2013-09-19 10:58:00,
2013-09-19 07:00:00,61.6,59.6,29.96,NW,321,0.0,2.0,93,0.00,,SKC,0.00,VWS V14.01,2013-09-19 11:00:00,
2013-09-19 07:03:00,61.6,59.6,29.96,NW,321,0.0,1.0,93,0.00,,SKC,0.00,VWS V14.01,2013-09-19 11:03:00,
2013-09-19 07:08:00,61.5,59.5,29.96,NW,321,0.0,1.0,93,0.00,,SKC,0.00,VWS V14.01,2013-09-19 11:08:00,
2013-09-19 07:13:00,61.5,59.5,29.96,NW,321,0.0,1.0,93,0.00,,SKC,0.00,VWS V14.01,2013-09-19 11:13:00,
2013-09-19 07:18:00,61.5,59.5,29.96,NW,321,0.0,1.0,93,0.00,,SKC,0.00,VWS V14.01,2013-09-19 11:18:00,
2013-09-19 07:23:00,61.5,59.5,29.96,NW,321,0.0,1.0,93,0.00,,SKC,0.00,VWS V14.01,2013-09-19 11:23:00,
2013-09-19 07:29:00,61.5,59.5,29.96,NW,321,0.0,1.0,93,0.00,,SKC,0.00,VWS V14.01,2013-09-19 11:29:00,
2013-09-19 07:34:00,61.5,59.5,29.97,NW,321,0.0,1.0,93,0.00,,SKC,0.00,VWS V14.01,2013-09-19 11:34:00,
2013-09-19 07:39:00,61.5,59.5,29.97,NW,321,0.0,2.0,93,0.00,,SKC,0.00,VWS V14.01,2013-09-19 11:39:00,
2013-09-19 07:44:00,61.5,59.5,29.97,NW,321,0.0,2.0,93,0.00,,SKC,0.00,VWS V14.01,2013-09-19 11:44:00,
2013-09-19 07:49:00,61.5,59.5,29.97,NW,321,0.0,2.0,93,0.00,,SKC,0.00,VWS V14.01,2013-09-19 11:49:00,
2013-09-19 07:54:00,61.5,59.5,29.97,NW,321,0.0,2.0,93,0.00,,SKC,0.00,VWS V14.01,2013-09-19 11:54:00,
2013-09-19 07:59:00,61.6,59.6,29.97,NW,321,0.0,2.0,93,0.00,,SKC,0.00,VWS V14.01,2013-09-19 11:59:00,
2013-09-19 08:00:00,61.6,59.6,29.97,NW,321,0.0,2.0,93,0.00,,SKC,0.00,VWS V14.01,2013-09-19 12:00:00,
2013-09-19 08:04:00,61.5,59.5,29.97,NW,321,0.0,1.0,93,0.00,,SKC,0.00,VWS V14.01,2013-09-19 12:04:00,
2013-09-19 08:09:00,61.5,59.5,29.97,NW,321,0.0,1.0,93,0.00,,SKC,0.00,VWS V14.01,2013-09-19 12:09:00,
2013-09-19 08:14:00,61.5,59.5,29.97,NW,321,0.0,1.0,93,0.00,,SKC,0.00,VWS V14.01,2013-09-19 12:14:00,
2013-09-19 08:19:00,61.6,59.6,29.98,NW,321,0.0,1.0,93,0.00,,SKC,0.00,VWS V14.01,2013-09-19 12:19:00,
2013-09-19 08:25:00,61.6,59.6,29.98,NW,321,0.0,1.0,93,0.00,,SKC,0.00,VWS V14.01,2013-09-19 12:25:00,
2013-09-19 08:30:00,61.6,59.6,29.98,NW,321,0.0,1.0,93,0.00,,SKC,0.00,VWS V14.01,2013-09-19 12:30:00,
2013-09-19 08:35:00,61.6,59.6,29.98,NW,321,0.0,1.0,93,0.00,,SKC,0.00,VWS V14.01,2013-09-19 12:35:00,
2013-09-19 08:40:00,61.6,59.6,29.98,NW,321,0.0,1.0,93,0.00,,SKC,0.00,VWS V14.01,2013-09-19 12:40:00,
2013-09-19 08:45:00,61.6,59.9,29.98,NW,321,0.0,1.0,94,0.00,,SKC,0.00,VWS V14.01,2013-09-19 12:45:00,
2013-09-19 08:50:00,61.6,59.6,29.98,NW,321,0.0,1.0,93,0.00,,SKC,0.00,VWS V14.01,2013-09-19 12:50:00,
2013-09-19 08:55:00,61.8,59.8,29.98,NW,321,0.0,1.0,93,0.00,,SKC,0.00,VWS V14.01,2013-09-19 12:55:00,
2013-09-19 09:00:00,61.8,59.8,29.98,NW,321,0.0,1.0,93,0.00,,SKC,0.00,VWS V14.01,2013-09-19 13:00:00,
2013-09-19 09:06:00,62.0,60.0,29.98,NW,321,0.0,1.0,93,0.00,,SKC,0.00,VWS V14.01,2013-09-19 13:06:00,
2013-09-19 09:11:00,62.0,60.0,29.98,NW,321,0.0,1.0,93,0.00,,SKC,0.00,VWS V14.01,2013-09-19 13:11:00,
2013-09-19 09:16:00,62.1,60.1,29.99,NW,321,0.0,1.0,93,0.00,,SKC,0.00,VWS V14.01,2013-09-19 13:16:00,
2013-09-19 09:21:00,62.1,60.1,29.99,NW,321,0.0,1.0,93,0.00,,SKC,0.00,VWS V14.01,2013-09-19 13:21:00,
2013-09-19 09:26:00,62.3,60.2,29.99,NW,321,1.0,1.0,93,0.00,,SKC,0.00,VWS V14.01,2013-09-19 13:26:00,
2013-09-19 09:31:00,62.1,60.1,29.98,NW,321,0.0,1.0,93,0.00,,SKC,0.00,VWS V14.01,2013-09-19 13:31:00,
2013-09-19 09:36:00,62.3,60.2,29.98,NW,321,0.0,1.0,93,0.00,,SKC,0.00,VWS V14.01,2013-09-19 13:36:00,
2013-09-19 09:41:00,62.3,60.2,29.98,NW,321,0.0,2.0,93,0.00,,SKC,0.00,VWS V14.01,2013-09-19 13:41:00,
2013-09-19 09:46:00,62.4,60.0,29.99,NW,321,0.0,2.0,92,0.00,,SKC,0.00,VWS V14.01,2013-09-19 13:46:00,
2013-09-19 09:52:00,62.6,60.2,29.99,NW,321,0.0,2.0,92,0.00,,SKC,0.00,VWS V14.01,2013-09-19 13:52:00,
2013-09-19 09:57:00,62.7,60.3,29.99,NW,321,1.0,2.0,92,0.00,,SKC,0.00,VWS V14.01,2013-09-19 13:57:00,
2013-09-19 10:00:00,62.9,60.5,29.98,NW,321,1.0,2.0,92,0.00,,SKC,0.00,VWS V14.01,2013-09-19 14:00:00,
2013-09-19 10:02:00,62.9,60.5,29.98,NW,321,0.0,1.0,92,0.00,,SKC,0.00,VWS V14.01,2013-09-19 14:02:00,
2013-09-19 10:08:00,62.9,60.5,29.98,NW,321,0.0,2.0,92,0.00,,SKC,0.00,VWS V14.01,2013-09-19 14:08:00,
2013-09-19 10:13:00,63.1,60.7,29.98,NW,321,1.0,2.0,92,0.00,,SKC,0.00,VWS V14.01,2013-09-19 14:13:00,
2013-09-19 10:18:00,63.2,60.5,29.98,NW,321,1.0,2.0,91,0.00,,SKC,0.00,VWS V14.01,2013-09-19 14:18:00,
2013-09-19 10:23:00,63.7,61.0,29.98,NW,321,0.0,2.0,91,0.00,,SKC,0.00,VWS V14.01,2013-09-19 14:23:00,
2013-09-19 10:28:00,64.0,61.3,29.98,NW,321,0.0,2.0,91,0.00,,SKC,0.00,VWS V14.01,2013-09-19 14:28:00,
2013-09-19 10:33:00,64.0,61.0,29.98,NW,321,1.0,4.0,90,0.00,,SKC,0.00,VWS V14.01,2013-09-19 14:33:00,
2013-09-19 10:38:00,64.0,60.7,29.98,NW,321,1.0,4.0,89,0.00,,SKC,0.00,VWS V14.01,2013-09-19 14:38:00,
2013-09-19 10:43:00,64.3,61.0,29.98,NW,321,0.0,4.0,89,0.00,,SKC,0.00,VWS V14.01,2013-09-19 14:43:00,
2013-09-19 10:49:00,64.7,61.4,29.97,NW,321,0.0,4.0,89,0.00,,SKC,0.00,VWS V14.01,2013-09-19 14:49:00,
2013-09-19 10:54:00,65.2,61.6,29.97,NW,321,0.0,4.0,88,0.00,,SKC,0.00,VWS V14.01,2013-09-19 14:54:00,
2013-09-19 10:59:00,65.3,61.3,29.97,NW,321,2.0,4.0,87,0.00,,SKC,0.00,VWS V14.01,2013-09-19 14:59:00,
2013-09-19 11:00:00,65.5,61.2,29.97,NW,321,0.0,4.0,86,0.00,,SKC,0.00,VWS V14.01,2013-09-19 15:00:00,
2013-09-19 11:04:00,65.8,61.5,29.97,NW,321,0.0,2.0,86,0.00,,SKC,0.00,VWS V14.01,2013-09-19 15:04:00,
2013-09-19 11:09:00,66.1,61.5,29.97,NW,321,1.0,2.0,85,0.00,,SKC,0.00,VWS V14.01,2013-09-19 15:09:00,
2013-09-19 11:14:00,66.8,61.8,29.97,NW,321,1.0,3.0,84,0.00,,SKC,0.00,VWS V14.01,2013-09-19 15:14:00,
2013-09-19 11:19:00,67.3,61.6,29.97,NW,322,0.0,5.0,82,0.00,,SKC,0.00,VWS V14.01,2013-09-19 15:19:00,
2013-09-19 11:24:00,68.1,62.4,29.97,NW,322,0.0,5.0,82,0.00,,SKC,0.00,VWS V14.01,2013-09-19 15:24:00,
2013-09-19 11:29:00,68.9,62.5,29.97,NW,322,0.0,5.0,80,0.00,,SKC,0.00,VWS V14.01,2013-09-19 15:29:00,
2013-09-19 11:35:00,68.9,62.1,29.96,NW,322,0.0,5.0,79,0.00,,SKC,0.00,VWS V14.01,2013-09-19 15:35:00,
2013-09-19 11:40:00,69.3,62.5,29.96,WSW,254,1.0,6.0,79,0.00,,SKC,0.00,VWS V14.01,2013-09-19 15:40:00,
2013-09-19 11:45:00,69.1,62.0,29.95,WSW,254,3.0,6.0,78,0.00,,SKC,0.00,VWS V14.01,2013-09-19 15:45:00,
2013-09-19 11:50:00,69.3,62.5,29.95,West,259,1.0,6.0,79,0.00,,SKC,0.00,VWS V14.01,2013-09-19 15:50:00,
2013-09-19 11:55:00,69.4,62.2,29.95,WNW,287,0.0,6.0,78,0.00,,SKC,0.00,VWS V14.01,2013-09-19 15:55:00,
2013-09-19 12:00:00,69.6,62.1,29.95,WNW,287,0.0,6.0,77,0.00,,SKC,0.00,VWS V14.01,2013-09-19 16:00:00,
2013-09-19 12:05:00,69.9,62.7,29.95,WNW,287,2.0,2.0,78,0.00,,SKC,0.00,VWS V14.01,2013-09-19 16:05:00,
2013-09-19 12:10:00,69.8,62.3,29.95,WNW,287,0.0,2.0,77,0.00,,SKC,0.00,VWS V14.01,2013-09-19 16:10:00,
2013-09-19 12:16:00,69.8,62.3,29.95,WNW,287,0.0,4.0,77,0.00,,SKC,0.00,VWS V14.01,2013-09-19 16:16:00,
2013-09-19 12:21:00,70.3,62.8,29.95,WNW,287,0.0,4.0,77,0.00,,SKC,0.00,VWS V14.01,2013-09-19 16:21:00,
2013-09-19 12:26:00,70.6,62.3,29.95,WNW,287,0.0,4.0,75,0.00,,SKC,0.00,VWS V14.01,2013-09-19 16:26:00,
2013-09-19 12:31:00,70.6,62.3,29.94,WNW,287,0.0,4.0,75,0.00,,SKC,0.00,VWS V14.01,2013-09-19 16:31:00,
2013-09-19 12:36:00,71.5,62.8,29.94,WNW,287,1.0,4.0,74,0.00,,SKC,0.00,VWS V14.01,2013-09-19 16:36:00,
2013-09-19 12:41:00,72.1,62.6,29.94,WNW,292,2.0,4.0,72,0.00,,SKC,0.00,VWS V14.01,2013-09-19 16:41:00,
2013-09-19 12:46:00,72.5,62.6,29.94,NW,325,1.0,6.0,71,0.00,,SKC,0.00,VWS V14.01,2013-09-19 16:46:00,
2013-09-19 12:51:00,72.1,62.6,29.94,NW,325,1.0,6.0,72,0.00,,SKC,0.00,VWS V14.01,2013-09-19 16:51:00,
2013-09-19 12:56:00,72.3,62.4,29.94,NW,320,1.0,6.0,71,0.00,,SKC,0.00,VWS V14.01,2013-09-19 16:56:00,
2013-09-19 13:00:00,72.0,62.5,29.93,NW,320,1.0,6.0,72,0.00,,SKC,0.00,VWS V14.01,2013-09-19 17:00:00,
2013-09-19 13:02:00,72.0,62.5,29.93,NW,320,0.0,2.0,72,0.00,,SKC,0.00,VWS V14.01,2013-09-19 17:02:00,
2013-09-19 13:07:00,71.8,62.7,29.93,NW,320,0.0,4.0,73,0.00,,SKC,0.00,VWS V14.01,2013-09-19 17:07:00,
2013-09-19 13:12:00,72.3,62.8,29.93,NW,320,1.0,6.0,72,0.00,,SKC,0.00,VWS V14.01,2013-09-19 17:12:00,
2013-09-19 13:17:00,73.2,63.6,29.93,NW,320,1.0,6.0,72,0.00,,SKC,0.00,VWS V14.01,2013-09-19 17:17:00,
2013-09-19 13:22:00,73.2,62.8,29.93,NW,320,2.0,6.0,70,0.00,,SKC,0.00,VWS V14.01,2013-09-19 17:22:00,
2013-09-19 13:27:00,73.0,62.7,29.93,NW,321,2.0,6.0,70,0.00,,SKC,0.00,VWS V14.01,2013-09-19 17:27:00,
2013-09-19 13:32:00,72.7,62.8,29.93,NW,321,1.0,6.0,71,0.00,,SKC,0.00,VWS V14.01,2013-09-19 17:32:00,
2013-09-19 13:37:00,72.5,63.0,29.93,NW,321,0.0,6.0,72,0.00,,SKC,0.00,VWS V14.01,2013-09-19 17:37:00,
2013-09-19 13:43:00,72.3,62.4,29.93,NW,321,2.0,6.0,71,0.00,,SKC,0.00,VWS V14.01,2013-09-19 17:43:00,
2013-09-19 13:48:00,72.0,62.1,29.93,NW,321,0.0,6.0,71,0.00,,SKC,0.00,VWS V14.01,2013-09-19 17:48:00,
2013-09-19 13:53:00,72.1,62.2,29.93,NW,325,4.0,6.0,71,0.00,,SKC,0.00,VWS V14.01,2013-09-19 17:53:00,
2013-09-19 13:58:00,71.8,62.3,29.93,NNW,331,1.0,6.0,72,0.00,,SKC,0.00,VWS V14.01,2013-09-19 17:58:00,
2013-09-19 14:00:00,72.0,62.9,29.93,NNW,331,0.0,6.0,73,0.00,,SKC,0.00,VWS V14.01,2013-09-19 18:00:00,
2013-09-19 14:03:00,72.1,62.6,29.93,NNW,331,0.0,2.0,72,0.00,,SKC,0.00,VWS V14.01,2013-09-19 18:03:00,
2013-09-19 14:08:00,72.3,62.8,29.93,NNW,331,0.0,3.0,72,0.00,,SKC,0.00,VWS V14.01,2013-09-19 18:08:00,
2013-09-19 14:13:00,72.3,62.8,29.93,NNW,331,0.0,3.0,72,0.00,,SKC,0.00,VWS V14.01,2013-09-19 18:13:00,
2013-09-19 14:18:00,72.1,62.6,29.92,NNW,331,2.0,3.0,72,0.00,,SKC,0.00,VWS V14.01,2013-09-19 18:18:00,
2013-09-19 14:24:00,72.0,62.9,29.92,NNW,331,0.0,3.0,73,0.00,,SKC,0.00,VWS V14.01,2013-09-19 18:24:00,
2013-09-19 14:29:00,72.0,62.9,29.92,NNW,331,1.0,3.0,73,0.00,,SKC,0.00,VWS V14.01,2013-09-19 18:29:00,
2013-09-19 14:34:00,72.3,63.2,29.92,NNW,331,0.0,3.0,73,0.00,,SKC,0.00,VWS V14.01,2013-09-19 18:34:00,
2013-09-19 14:39:00,72.1,62.6,29.92,NW,322,0.0,6.0,72,0.00,,SKC,0.00,VWS V14.01,2013-09-19 18:39:00,
2013-09-19 14:44:00,72.0,62.9,29.92,NW,322,1.0,6.0,73,0.00,,SKC,0.00,VWS V14.01,2013-09-19 18:44:00,
2013-09-19 14:49:00,72.0,62.9,29.92,NW,322,0.0,6.0,73,0.00,,SKC,0.00,VWS V14.01,2013-09-19 18:49:00,
2013-09-19 14:54:00,72.3,63.2,29.92,NW,322,2.0,6.0,73,0.00,,SKC,0.00,VWS V14.01,2013-09-19 18:54:00,
2013-09-19 14:59:00,71.8,62.3,29.92,NW,322,2.0,6.0,72,0.00,,SKC,0.00,VWS V14.01,2013-09-19 18:59:00,
2013-09-19 15:00:00,71.6,62.1,29.91,NW,322,2.0,6.0,72,0.00,,SKC,0.00,VWS V14.01,2013-09-19 19:00:00,
2013-09-19 15:05:00,71.5,62.8,29.91,NW,321,5.0,5.0,74,0.00,,SKC,0.00,VWS V14.01,2013-09-19 19:05:00,
2013-09-19 15:10:00,71.3,62.2,29.91,NW,321,1.0,5.0,73,0.00,,SKC,0.00,VWS V14.01,2013-09-19 19:10:00,
2013-09-19 15:15:00,71.1,62.8,29.91,NW,321,1.0,5.0,75,0.00,,SKC,0.00,VWS V14.01,2013-09-19 19:15:00,
2013-09-19 15:20:00,71.3,63.0,29.91,NW,321,1.0,5.0,75,0.00,,SKC,0.00,VWS V14.01,2013-09-19 19:20:00,
2013-09-19 15:25:00,71.5,62.8,29.91,NW,321,4.0,5.0,74,0.00,,SKC,0.00,VWS V14.01,2013-09-19 19:25:00,
2013-09-19 15:30:00,70.9,62.2,29.91,NW,321,2.0,5.0,74,0.00,,SKC,0.00,VWS V14.01,2013-09-19 19:30:00,
2013-09-19 15:35:00,70.6,62.3,29.91,NW,321,3.0,5.0,75,0.00,,SKC,0.00,VWS V14.01,2013-09-19 19:35:00,
2013-09-19 15:41:00,70.6,62.7,29.91,NW,321,2.0,5.0,76,0.00,,SKC,0.00,VWS V14.01,2013-09-19 19:41:00,
2013-09-19 15:46:00,70.6,62.7,29.90,NW,321,1.0,5.0,76,0.00,,SKC,0.00,VWS V14.01,2013-09-19 19:46:00,
2013-09-19 15:51:00,70.4,62.5,29.90,NW,321,0.0,5.0,76,0.00,,SKC,0.00,VWS V14.01,2013-09-19 19:51:00,
2013-09-19 15:56:00,70.3,62.8,29.90,NW,321,2.0,5.0,77,0.00,,SKC,0.00,VWS V14.01,2013-09-19 19:56:00,
2013-09-19 16:00:00,70.1,62.6,29.90,NW,319,2.0,5.0,77,0.00,,SKC,0.00,VWS V14.01,2013-09-19 20:00:00,
2013-09-19 16:01:00,70.1,62.6,29.90,NW,319,1.0,3.0,77,0.00,,SKC,0.00,VWS V14.01,2013-09-19 20:01:00,
2013-09-19 16:06:00,69.9,62.4,29.90,NW,319,0.0,3.0,77,0.00,,SKC,0.00,VWS V14.01,2013-09-19 20:06:00,
2013-09-19 16:11:00,69.8,62.3,29.90,NW,319,2.0,4.0,77,0.00,,SKC,0.00,VWS V14.01,2013-09-19 20:11:00,
2013-09-19 16:16:00,69.9,62.7,29.90,NW,319,2.0,4.0,78,0.00,,SKC,0.00,VWS V14.01,2013-09-19 20:16:00,
2013-09-19 16:21:00,69.8,62.6,29.90,NW,319,2.0,4.0,78,0.00,,SKC,0.00,VWS V14.01,2013-09-19 20:21:00,
2013-09-19 16:27:00,69.6,62.4,29.90,NW,315,2.0,4.0,78,0.00,,SKC,0.00,VWS V14.01,2013-09-19 20:27:00,
2013-09-19 16:32:00,69.3,62.5,29.91,NW,315,1.0,4.0,79,0.00,,SKC,0.00,VWS V14.01,2013-09-19 20:32:00,
2013-09-19 16:37:00,69.3,62.5,29.91,NW,315,0.0,4.0,79,0.00,,SKC,0.00,VWS V14.01,2013-09-19 20:37:00,
2013-09-19 16:42:00,69.1,62.3,29.91,NW,315,2.0,4.0,79,0.00,,SKC,0.00,VWS V14.01,2013-09-19 20:42:00,
2013-09-19 16:47:00,69.1,62.3,29.91,NW,315,1.0,4.0,79,0.00,,SKC,0.00,VWS V14.01,2013-09-19 20:47:00,
2013-09-19 16:52:00,69.1,62.3,29.91,NW,315,0.0,4.0,79,0.00,,SKC,0.00,VWS V14.01,2013-09-19 20:52:00,
2013-09-19 16:57:00,69.1,62.3,29.91,NW,315,0.0,4.0,79,0.00,,SKC,0.00,VWS V14.01,2013-09-19 20:57:00,
2013-09-19 17:00:00,68.9,62.1,29.92,NW,315,0.0,4.0,79,0.00,,SKC,0.00,VWS V14.01,2013-09-19 21:00:00,
2013-09-19 17:02:00,68.9,62.1,29.92,NW,315,0.0,2.0,79,0.00,,SKC,0.00,VWS V14.01,2013-09-19 21:02:00,
2013-09-19 17:08:00,68.9,62.1,29.92,NW,315,0.0,2.0,79,0.00,,SKC,0.00,VWS V14.01,2013-09-19 21:08:00,
2013-09-19 17:13:00,68.9,62.5,29.92,NW,315,0.0,2.0,80,0.00,,SKC,0.00,VWS V14.01,2013-09-19 21:13:00,
2013-09-19 17:18:00,68.8,62.4,29.92,NW,315,0.0,2.0,80,0.00,,SKC,0.00,VWS V14.01,2013-09-19 21:18:00,
2013-09-19 17:23:00,68.8,62.4,29.92,NW,315,0.0,2.0,80,0.00,,SKC,0.00,VWS V14.01,2013-09-19 21:23:00,
2013-09-19 17:28:00,68.8,62.4,29.92,NW,315,0.0,2.0,80,0.00,,SKC,0.00,VWS V14.01,2013-09-19 21:28:00,
2013-09-19 17:33:00,68.9,62.5,29.92,NW,315,0.0,2.0,80,0.00,,SKC,0.00,VWS V14.01,2013-09-19 21:33:00,
2013-09-19 17:38:00,68.8,62.4,29.92,NW,315,0.0,2.0,80,0.00,,SKC,0.00,VWS V14.01,2013-09-19 21:38:00,
2013-09-19 17:43:00,68.8,62.4,29.92,NW,315,1.0,2.0,80,0.00,,SKC,0.00,VWS V14.01,2013-09-19 21:43:00,
2013-09-19 17:49:00,68.6,62.2,29.92,NW,315,0.0,2.0,80,0.00,,SKC,0.00,VWS V14.01,2013-09-19 21:49:00,
2013-09-19 17:54:00,68.6,62.5,29.92,NW,315,0.0,2.0,81,0.00,,SKC,0.00,VWS V14.01,2013-09-19 21:54:00,
2013-09-19 17:59:00,68.6,62.5,29.92,NW,315,0.0,2.0,81,0.00,,SKC,0.00,VWS V14.01,2013-09-19 21:59:00,
2013-09-19 18:00:00,68.6,62.5,29.92,NW,315,0.0,2.0,81,0.00,,SKC,0.00,VWS V14.01,2013-09-19 22:00:00,
2013-09-19 18:04:00,68.6,62.5,29.92,NW,315,0.0,0.0,81,0.00,,SKC,0.00,VWS V14.01,2013-09-19 22:04:00,
2013-09-19 18:09:00,68.6,62.5,29.92,NW,315,0.0,0.0,81,0.00,,SKC,0.00,VWS V14.01,2013-09-19 22:09:00,
2013-09-19 18:14:00,68.4,62.7,29.92,NW,315,0.0,0.0,82,0.00,,SKC,0.00,VWS V14.01,2013-09-19 22:14:00,
2013-09-19 18:19:00,68.4,62.3,29.92,NW,315,0.0,0.0,81,0.00,,SKC,0.00,VWS V14.01,2013-09-19 22:19:00,
2013-09-19 18:24:00,68.4,62.7,29.92,NW,315,0.0,0.0,82,0.00,,SKC,0.00,VWS V14.01,2013-09-19 22:24:00,
2013-09-19 18:30:00,68.4,62.7,29.92,NW,315,0.0,0.0,82,0.00,,SKC,0.00,VWS V14.01,2013-09-19 22:30:00,
2013-09-19 18:35:00,68.4,62.7,29.92,NW,315,0.0,0.0,82,0.00,,SKC,0.00,VWS V14.01,2013-09-19 22:35:00,
2013-09-19 18:40:00,68.4,62.3,29.92,NW,315,0.0,0.0,81,0.00,,SKC,0.00,VWS V14.01,2013-09-19 22:40:00,
2013-09-19 18:45:00,68.4,62.7,29.92,NW,315,0.0,0.0,82,0.00,,SKC,0.00,VWS V14.01,2013-09-19 22:45:00,
2013-09-19 18:50:00,68.4,62.7,29.92,NW,315,0.0,0.0,82,0.00,,SKC,0.00,VWS V14.01,2013-09-19 22:50:00,
2013-09-19 18:55:00,68.4,62.7,29.92,NW,315,0.0,0.0,82,0.00,,SKC,0.00,VWS V14.01,2013-09-19 22:55:00,
2013-09-19 19:00:00,68.3,62.6,29.91,NW,315,0.0,0.0,82,0.00,,SKC,0.00,VWS V14.01,2013-09-19 23:00:00,
2013-09-19 19:06:00,68.3,62.9,29.91,NW,315,0.0,0.0,83,0.00,,SKC,0.00,VWS V14.01,2013-09-19 23:06:00,
2013-09-19 19:11:00,68.1,62.4,29.91,NW,315,0.0,0.0,82,0.00,,SKC,0.00,VWS V14.01,2013-09-19 23:11:00,
2013-09-19 19:16:00,67.9,62.5,29.91,NW,315,0.0,0.0,83,0.00,,SKC,0.00,VWS V14.01,2013-09-19 23:16:00,
2013-09-19 19:21:00,67.9,62.5,29.91,NW,315,0.0,0.0,83,0.00,,SKC,0.00,VWS V14.01,2013-09-19 23:21:00,
2013-09-19 19:26:00,67.9,62.5,29.91,NW,315,0.0,0.0,83,0.00,,SKC,0.00,VWS V14.01,2013-09-19 23:26:00,
2013-09-19 19:31:00,67.8,62.5,29.91,NW,315,0.0,0.0,83,0.00,,SKC,0.00,VWS V14.01,2013-09-19 23:31:00,
2013-09-19 19:37:00,67.8,62.5,29.91,NW,315,0.0,1.0,83,0.00,,SKC,0.00,VWS V14.01,2013-09-19 23:37:00,
2013-09-19 19:42:00,67.8,62.5,29.91,NW,315,0.0,1.0,83,0.00,,SKC,0.00,VWS V14.01,2013-09-19 23:42:00,
2013-09-19 19:47:00,67.6,62.3,29.90,NW,315,0.0,1.0,83,0.00,,SKC,0.00,VWS V14.01,2013-09-19 23:47:00,
2013-09-19 19:52:00,67.6,62.6,29.90,NW,315,0.0,1.0,84,0.00,,SKC,0.00,VWS V14.01,2013-09-19 23:52:00,
2013-09-19 19:58:00,67.6,62.6,29.90,NW,315,0.0,1.0,84,0.00,,SKC,0.00,VWS V14.01,2013-09-19 23:58:00,
2013-09-19 20:00:00,67.6,62.6,29.90,NW,315,0.0,1.0,84,0.00,,SKC,0.00,VWS V14.01,2013-09-20 00:00:00,
2013-09-19 20:03:00,67.6,62.6,29.90,NW,315,0.0,1.0,84,0.00,,SKC,0.00,VWS V14.01,2013-09-20 00:03:00,
2013-09-19 20:08:00,67.4,62.4,29.90,NW,315,0.0,1.0,84,0.00,,SKC,0.00,VWS V14.01,2013-09-20 00:08:00,
2013-09-19 20:13:00,67.4,62.4,29.90,NW,315,0.0,1.0,84,0.00,,SKC,0.00,VWS V14.01,2013-09-20 00:13:00,
2013-09-19 20:18:00,67.4,62.4,29.89,NW,315,0.0,1.0,84,0.00,,SKC,0.00,VWS V14.01,2013-09-20 00:18:00,
2013-09-19 20:24:00,67.4,62.4,29.89,NW,315,0.0,1.0,84,0.00,,SKC,0.00,VWS V14.01,2013-09-20 00:24:00,
2013-09-19 20:29:00,67.4,62.4,29.89,NW,315,0.0,1.0,84,0.00,,SKC,0.00,VWS V14.01,2013-09-20 00:29:00,
2013-09-19 20:34:00,67.4,62.4,29.89,NW,315,0.0,1.0,84,0.00,,SKC,0.00,VWS V14.01,2013-09-20 00:34:00,
2013-09-19 20:39:00,67.3,62.3,29.89,NW,315,0.0,1.0,84,0.00,,SKC,0.00,VWS V14.01,2013-09-20 00:39:00,
2013-09-19 20:44:00,67.3,62.3,29.89,NW,315,0.0,1.0,84,0.00,,SKC,0.00,VWS V14.01,2013-09-20 00:44:00,
2013-09-19 20:49:00,67.3,62.3,29.89,NW,315,0.0,1.0,84,0.00,,SKC,0.00,VWS V14.01,2013-09-20 00:49:00,
2013-09-19 20:54:00,67.3,62.6,29.89,NW,315,0.0,1.0,85,0.00,,SKC,0.00,VWS V14.01,2013-09-20 00:54:00,
2013-09-19 20:59:00,67.1,62.5,29.89,NW,315,0.0,1.0,85,0.00,,SKC,0.00,VWS V14.01,2013-09-20 00:59:00,
2013-09-19 21:00:00,67.1,62.5,29.88,NW,315,0.0,1.0,85,0.00,,SKC,0.00,VWS V14.01,2013-09-20 01:00:00,
2013-09-19 21:04:00,67.3,62.3,29.88,NW,315,0.0,2.0,84,0.00,,SKC,0.00,VWS V14.01,2013-09-20 01:04:00,
2013-09-19 21:09:00,67.3,62.6,29.88,NW,315,0.0,2.0,85,0.00,,SKC,0.00,VWS V14.01,2013-09-20 01:09:00,
2013-09-19 21:15:00,67.1,62.5,29.88,NW,315,0.0,2.0,85,0.00,,SKC,0.00,VWS V14.01,2013-09-20 01:15:00,
2013-09-19 21:20:00,67.1,62.5,29.88,NW,315,0.0,2.0,85,0.00,,SKC,0.00,VWS V14.01,2013-09-20 01:20:00,
2013-09-19 21:25:00,67.1,62.5,29.88,NW,315,2.0,2.0,85,0.00,,SKC,0.00,VWS V14.01,2013-09-20 01:25:00,
2013-09-19 21:30:00,67.1,62.5,29.87,NW,315,2.0,3.0,85,0.00,,SKC,0.00,VWS V14.01,2013-09-20 01:30:00,
2013-09-19 21:35:00,67.1,62.5,29.87,NW,315,1.0,3.0,85,0.00,,SKC,0.00,VWS V14.01,2013-09-20 01:35:00,
2013-09-19 21:40:00,67.1,62.5,29.87,NW,315,0.0,3.0,85,0.00,,SKC,0.00,VWS V14.01,2013-09-20 01:40:00,
2013-09-19 21:45:00,67.1,62.5,29.88,NW,315,0.0,3.0,85,0.00,,SKC,0.00,VWS V14.01,2013-09-20 01:45:00,
2013-09-19 21:50:00,66.9,62.2,29.88,NW,315,0.0,3.0,85,0.00,,SKC,0.00,VWS V14.01,2013-09-20 01:50:00,
2013-09-19 21:55:00,66.9,62.2,29.88,NW,315,0.0,3.0,85,0.00,,SKC,0.00,VWS V14.01,2013-09-20 01:55:00,
2013-09-19 22:00:00,66.9,62.2,29.87,NW,315,0.0,3.0,85,0.00,,SKC,0.00,VWS V14.01,2013-09-20 02:00:00,
2013-09-19 22:06:00,66.9,62.2,29.87,NW,315,0.0,1.0,85,0.00,,SKC,0.00,VWS V14.01,2013-09-20 02:06:00,
2013-09-19 22:11:00,66.9,62.2,29.87,NW,315,0.0,1.0,85,0.00,,SKC,0.00,VWS V14.01,2013-09-20 02:11:00,
2013-09-19 22:16:00,66.8,62.2,29.87,NW,315,0.0,1.0,85,0.00,,SKC,0.00,VWS V14.01,2013-09-20 02:16:00,
2013-09-19 22:21:00,66.6,62.0,29.87,NW,315,0.0,1.0,85,0.00,,SKC,0.00,VWS V14.01,2013-09-20 02:21:00,
2013-09-19 22:26:00,66.4,62.1,29.87,NW,315,0.0,1.0,86,0.00,,SKC,0.00,VWS V14.01,2013-09-20 02:26:00,
2013-09-19 22:31:00,66.3,62.0,29.88,NW,315,0.0,1.0,86,0.00,,SKC,0.00,VWS V14.01,2013-09-20 02:31:00,
2013-09-19 22:36:00,66.0,61.7,29.88,NW,315,0.0,1.0,86,0.00,,SKC,0.00,VWS V14.01,2013-09-20 02:36:00,
2013-09-19 22:41:00,65.8,61.5,29.88,NW,315,0.0,1.0,86,0.00,,SKC,0.00,VWS V14.01,2013-09-20 02:41:00,
2013-09-19 22:46:00,65.6,61.6,29.88,NW,315,0.0,1.0,87,0.00,,SKC,0.00,VWS V14.01,2013-09-20 02:46:00,
2013-09-19 22:51:00,65.3,61.3,29.88,NW,315,0.0,1.0,87,0.00,,SKC,0.00,VWS V14.01,2013-09-20 02:51:00,
2013-09-19 22:56:00,65.2,61.2,29.88,NW,315,0.0,1.0,87,0.00,,SKC,0.00,VWS V14.01,2013-09-20 02:56:00,
2013-09-19 23:00:00,65.0,61.4,29.89,NW,315,0.0,1.0,88,0.00,,SKC,0.00,VWS V14.01,2013-09-20 03:00:00,
2013-09-19 23:01:00,65.0,61.4,29.89,NW,315,0.0,0.0,88,0.00,,SKC,0.00,VWS V14.01,2013-09-20 03:01:00,
2013-09-19 23:07:00,65.0,61.4,29.89,NW,315,0.0,0.0,88,0.00,,SKC,0.00,VWS V14.01,2013-09-20 03:07:00,
2013-09-19 23:12:00,65.2,61.9,29.89,NW,315,0.0,0.0,89,0.00,,SKC,0.00,VWS V14.01,2013-09-20 03:12:00,
2013-09-19 23:17:00,65.0,61.7,29.89,NW,315,0.0,0.0,89,0.00,,SKC,0.00,VWS V14.01,2013-09-20 03:17:00,
2013-09-19 23:22:00,65.0,61.7,29.89,NW,315,0.0,0.0,89,0.00,,SKC,0.00,VWS V14.01,2013-09-20 03:22:00,
2013-09-19 23:27:00,65.0,61.7,29.89,NW,315,0.0,0.0,89,0.00,,SKC,0.00,VWS V14.01,2013-09-20 03:27:00,
2013-09-19 23:32:00,65.2,61.9,29.89,NW,315,0.0,0.0,89,0.00,,SKC,0.00,VWS V14.01,2013-09-20 03:32:00,
2013-09-19 23:37:00,65.2,61.9,29.89,NW,315,0.0,0.0,89,0.00,,SKC,0.00,VWS V14.01,2013-09-20 03:37:00,
2013-09-19 23:42:00,65.2,62.2,29.89,NW,315,0.0,0.0,90,0.00,,SKC,0.00,VWS V14.01,2013-09-20 03:42:00,
2013-09-19 23:47:00,65.2,62.2,29.89,NW,315,0.0,0.0,90,0.00,,SKC,0.00,VWS V14.01,2013-09-20 03:47:00,
2013-09-19 23:52:00,65.2,62.2,29.89,NW,315,0.0,0.0,90,0.00,,SKC,0.00,VWS V14.01,2013-09-20 03:52:00,
2013-09-19 23:57:00,65.3,62.3,29.89,NW,315,0.0,0.0,90,0.00,,SKC,0.00,VWS V14.01,2013-09-20 03:57:00,